Temperature
17 17 17 17 17 17 17 17 17 18 18 18 18 18 19 18 18 18 17 17 17 17 17 17 17 17 17 17 17 17 17 17 17 17 17 17 17 17 17 17 17 17 17
17 17 17 17 17 17 17 17 18 18 18 18 18 18 18 18 18 18 17 17 17 17 17 17 17 17 17 17 17 17 17 17 17 17 17 17 17 17 17 17 17 17 17
17 17 17 17 17 17 17 17 18 18 18 18 18 18 18 18 18 18 17 17 17 17 17 17 17 17 17 17 17 17 17 17 17 17 17 17 17 17 17 17 17 17 17
17 17 17 17 17 17 17 17 17 17 18 18 18 18 18 18 18 18 18 17 17 16 17 17 17 17 17 17 17 17 17 17 17 17 17 17 17 16 16 16 16 16 16
17 17 17 17 17 17 17 17 17 17 18 18 18 18 18 18 18 18 18 18 17 17 16 17 17 17 17 17 17 17 17 17 17 17 17 17 17 16 16 16 16 16 16
17 17 17 17 17 17 17 17 17 17 17 17 18 18 18 18 18 18 18 18 18 17 17 16 16 17 17 17 17 17 17 17 17 17 17 17 17 16 16 16 16 16 16
17 17 17 17 17 17 17 17 17 17 17 17 18 18 18 18 18 18 18 18 18 17 17 17 17 16 17 17 17 17 17 17 17 17 17 17 17 17 16 16 16 16 16
17 17 17 17 17 17 17 16 17 17 17 17 17 17 17 18 17 18 18 17 18 17 17 17 17 17 17 16 17 17 17 17 17 17 17 17 17 17 16 16 16 16 16
17 17 17 17 17 16 16 16 16 16 16 16 17 17 17 18 18 18 18 18 17 17 17 17 17 17 17 16 16 17 17 17 17 17 16 16 16 16 16 16 16 16 16
17 17 17 17 16 16 16 16 16 16 16 16 16 17 17 17 17 17 17 17 17 17 17 17 17 17 17 16 16 16 17 16 16 16 16 16 16 16 16 16 16 16 16
16 16 16 16 16 16 16 16 16 16 16 16 16 16 16 16 17 17 17 17 17 17 17 17 17 17 17 16 16 16 16 16 16 16 16 16 16 16 16 16 16 16 16
16 16 16 16 16 16 16 16 16 16 16 16 16 16 16 16 16 16 16 16 16 16 16 16 16 16 16 16 16 16 16 16 16 16 16 16 16 16 16 16 16 16 16
15 15 15 15 15 16 16 15 15 15 15 16 16 15 15 15 15 15 15 15 16 16 16 16 16 16 16 16 16 16 16 16 16 16 16 15 15 15 15 15 15 15 15
15 15 15 15 15 15 15 15 15 15 15 15 15 15 15 15 15 15 15 15 15 15 15 15 15 15 16 15 15 16 16 16 16 16 15 15 15 15 15 15 15 15 15
14 14 15 15 15 15 15 15 15 15 15 15 15 15 15 15 15 15 14 14 14 14 15 15 15 15 15 15 15 15 15 15 16 15 15 15 15 15 15 15 15 15 15
14 14 14 14 14 14 14 15 15 14 14 14 14 14 14 14 14 14 14 14 14 14 14 14 14 14 14 14 15 15 15 15 15 15 15 15 15 15 15 15 15 14 14
14 14 14 14 14 14 14 14 14 14 14 14 14 14 14 14 14 14 14 14 14 14 14 14 14 14 14 14 14 14 14 15 15 15 15 15 15 15 14 14 14 14 14
13 13 13 13 14 14 14 14 14 14 14 14 14 14 14 14 14 14 14 14 13 13 13 13 13 13 13 14 14 14 14 14 14 14 14 15 14 14 14 14 14 14 14
13 13 13 13 13 13 13 13 13 13 13 14 14 14 14 14 14 14 14 14 14 14 14 13 13 13 13 14 14 14 14 14 14 14 14 14 14 14 14 14 14 14 13
12 13 13 13 13 13 13 13 13 13 13 13 13 13 14 13 13 13 13 13 13 14 14 13 13 13 13 13 13 13 13 13 13 13 13 13 13 13 13 13 13 13 13
12 12 12 12 12 12 13 13 13 13 13 13 13 13 13 13 14 13 13 13 13 13 13 13 13 13 13 13 13 13 13 13 13 13 13 13 13 13 13 13 13 13 13
12 12 12 12 12 12 12 13 13 13 13 13 13 13 13 13 13 13 13 13 13 13 13 13 13 13 13 13 13 13 13 13 12 12 12 12 12 12 12 12 12 12 12
11 12 12 12 12 12 12 12 13 13 13 13 13 13 13 13 13 13 13 13 13 13 13 13 13 13 12 13 13 12 12 12 12 12 12 11 11 11 11 11 11 11 11
11 11 11 11 11 12 12 12 12 12 12 13 13 13 13 13 13 13 13 13 13 13 13 13 13 12 12 12 12 12 12 12 12 12 11 11 11 10 10 10 10 11 11
11 11 11 11 11 11 11 12 12 12 12 12 13 13 13 13 13 13 13 13 13 13 13 13 13 13 13 13 12 12 12 12 11 11 11 11 10 10 10 10 10 10 10
10 10 10 11 11 11 11 11 12 12 12 12 12 12 13 13 13 13 12 12 12 12 12 12 12 12 12 12 12 12 12 12 11 11 11 11 10 10 10 9 9 9 9
Wind_Speed
8 8 7 7 8 7 7 7 8 7 7 7 6 6 5 5 4 3 5 6 3 1 1 3 3 4 4 4 4 4 5 5 6 6 6 6 6 6 6 5 5 4 3
9 8 8 7 8 8 7 8 8 7 7 7 7 6 5 5 5 4 3 7 6 3 1 2 3 4 4 3 3 3 4 4 5 5 5 5 5 5 5 4 4 3 2
11 9 8 7 8 9 9 8 8 7 7 7 8 7 6 6 5 5 4 3 6 7 4 2 3 3 4 3 3 3 4 4 4 4 4 4 4 4 3 3 3 3 2
13 10 8 8 8 8 7 7 7 7 8 8 8 7 7 6 7 5 5 6 4 5 8 6 3 3 3 4 3 3 4 4 3 3 3 3 3 3 3 3 3 3 3
13 11 8 8 10 7 7 7 8 8 8 7 7 6 6 6 6 6 7 6 6 5 5 9 6 4 3 3 3 4 4 4 4 3 3 3 3 2 2 2 3 3 4
12 11 8 10 10 7 7 8 8 7 7 6 7 7 6 6 6 6 6 5 5 6 5 5 7 8 7 5 4 4 4 4 4 4 4 3 3 2 2 2 2 3 4
12 11 8 9 8 8 9 9 8 9 8 8 7 6 7 8 8 6 7 6 7 6 6 7 6 6 8 9 7 5 5 5 4 4 4 3 3 2 1 1 1 2 3
11 10 9 8 8 7 8 9 8 7 7 7 6 5 6 7 6 8 7 7 8 7 8 7 8 7 6 7 8 9 6 5 5 4 4 4 3 2 2 1 1 2 2
11 10 9 8 9 9 8 9 9 9 7 8 8 6 5 6 5 7 9 8 8 6 7 8 9 9 8 7 7 11 9 7 6 6 5 5 4 3 3 2 1 2 2
9 11 11 10 10 9 9 9 9 8 8 7 6 7 7 4 4 4 5 7 8 8 8 7 8 9 9 8 6 6 11 10 8 7 6 6 5 4 3 3 2 2 2
7 9 10 10 10 9 9 9 8 9 8 8 6 6 6 5 7 5 4 5 5 6 7 7 7 7 8 8 7 9 12 11 10 9 8 7 6 5 5 4 4 3 3
4 7 8 9 9 8 9 9 9 10 9 9 8 7 6 5 6 5 6 5 4 4 4 4 5 5 7 8 8 7 10 11 11 10 10 9 8 7 6 6 5 5 5
2 4 6 7 7 7 8 9 9 10 10 9 8 6 6 6 4 4 5 5 4 4 3 4 4 4 5 7 7 7 10 12 12 11 11 10 9 8 8 7 6 6 6
0 1 3 4 5 6 7 8 7 8 8 8 8 7 5 5 4 5 4 4 4 4 5 4 2 2 3 5 3 6 8 12 12 12 11 11 10 9 9 8 8 7 7
1 2 2 2 4 5 5 6 6 7 7 7 7 7 6 5 5 5 4 4 4 4 4 3 2 1 2 2 2 5 7 8 10 11 11 10 10 10 10 10 9 9 8
3 2 2 2 3 3 4 4 4 5 6 6 5 6 6 5 5 5 5 4 4 4 3 2 2 1 1 2 2 4 3 5 8 9 9 10 10 10 10 10 10 10 10
6 4 4 3 3 3 2 2 2 3 4 4 4 5 5 4 4 4 4 4 4 4 3 1 1 1 2 2 2 3 4 5 6 8 8 8 8 9 9 9 10 10 11
8 7 5 5 5 4 3 2 2 3 3 4 4 4 4 4 4 4 4 5 4 4 4 3 2 2 2 1 2 2 2 3 3 6 4 4 5 5 6 7 8 9 10
9 8 7 6 6 5 4 3 3 3 3 3 3 4 4 4 4 4 4 4 4 4 3 3 2 2 1 1 2 2 2 2 2 5 4 4 3 1 1 2 3 5 7
10 9 9 8 7 6 5 4 3 3 3 2 2 2 2 3 3 3 3 4 4 4 3 3 3 2 2 1 1 2 3 3 3 4 5 5 6 6 6 6 5 4 4
11 10 9 9 8 7 7 6 3 3 3 3 3 3 3 4 6 3 2 3 4 4 4 3 3 3 2 2 1 1 3 3 4 3 3 4 4 5 6 7 7 7 5
11 11 10 9 9 8 9 9 5 4 3 4 4 4 5 5 7 7 6 5 3 3 4 3 3 3 3 3 2 2 3 3 3 3 3 4 5 6 8 10 12 12 10
10 10 10 10 10 11 11 10 8 5 5 4 4 5 4 5 5 7 8 8 8 7 3 2 4 4 3 3 2 3 3 3 3 2 2 4 5 6 8 12 15 15 14
9 9 10 10 10 11 12 11 8 6 6 6 5 5 5 5 5 5 7 7 8 8 6 5 6 6 5 4 3 3 5 5 5 3 2 3 4 4 6 10 15 16 16
9 9 9 10 10 11 13 10 7 6 6 7 7 7 5 6 6 3 6 8 9 9 13 15 14 12 11 10 5 3 3 4 4 4 3 2 3 4 4 5 10 15 17
8 8 9 10 10 10 13 12 8 5 6 6 6 7 10 8 6 5 5 7 8 8 7 8 8 8 8 8 6 4 2 2 3 3 3 1 2 2 3 4 5 6 10
Wind_Direction
230 225 225 216 222 218 207 217 225 214 220 217 217 219 208 201 207 189 135 131 140 136 149 151 143 138 138 135 139 141 142 143 144 148 147 142 140 137 137 139 140 140 142
233 230 233 222 224 222 221 220 219 213 218 215 216 216 224 211 214 190 176 151 155 155 157 153 154 152 153 144 139 148 154 155 156 159 158 159 156 155 157 162 162 169 178
236 231 233 226 221 218 218 221 218 218 220 215 217 221 218 222 227 204 182 190 166 164 167 165 164 163 163 158 156 152 154 161 165 168 170 172 171 174 187 195 200 207 220
238 236 232 231 225 219 217 212 224 216 217 220 219 211 212 200 225 215 198 192 186 171 164 160 166 170 173 173 173 170 167 164 168 174 174 180 184 191 208 226 232 236 247
241 234 233 234 224 216 219 218 216 222 222 223 225 217 222 207 213 215 217 201 177 189 172 154 173 176 178 182 182 176 172 172 178 179 179 181 189 203 220 237 247 256 265
244 241 235 235 232 218 219 223 219 225 234 225 230 223 221 219 219 221 226 210 208 195 187 174 183 176 179 182 187 184 180 181 185 187 184 181 184 197 224 238 252 265 272
234 234 235 235 229 223 220 222 223 222 225 225 226 227 225 226 229 211 224 224 218 203 203 196 201 185 176 184 192 193 194 192 192 189 189 192 182 181 213 239 263 286 291
228 227 223 226 223 222 221 221 217 223 222 221 222 227 230 221 227 230 223 230 233 206 221 215 203 199 203 186 170 187 193 194 196 194 193 191 185 187 194 220 258 287 298
227 224 221 219 219 215 215 215 214 219 221 222 227 220 227 228 205 215 221 223 229 226 223 226 223 211 203 204 181 186 193 198 203 205 203 192 191 202 208 210 248 288 299
226 219 216 212 213 211 212 212 212 218 219 219 225 233 242 250 224 218 212 224 226 226 231 224 232 232 216 212 203 175 187 199 205 212 213 206 205 203 201 204 234 270 289
225 218 214 211 208 207 208 207 208 217 219 219 214 216 229 240 243 242 232 220 217 223 230 231 229 233 232 224 216 202 191 203 210 216 219 216 214 212 212 220 235 250 268
219 215 213 210 207 203 203 206 206 214 219 219 215 211 210 217 228 233 242 242 236 228 233 235 237 234 232 232 223 187 196 209 214 218 223 224 222 223 226 232 242 249 255
216 215 213 209 205 201 201 201 202 209 214 216 214 215 216 223 230 230 238 245 241 232 236 237 235 236 232 234 225 192 211 216 217 218 221 225 225 225 231 239 250 258 259
193 188 198 199 199 200 199 196 194 200 207 209 211 212 214 219 213 218 227 228 237 233 226 232 209 222 235 235 215 207 219 210 218 219 220 223 224 227 231 236 246 256 261
62 106 140 168 181 189 193 195 198 198 203 207 209 209 210 204 202 211 213 212 223 232 223 217 205 180 223 233 189 233 237 195 209 215 219 222 225 230 235 238 241 248 252
47 88 103 129 147 156 173 188 195 199 203 203 204 209 210 206 200 204 208 212 218 231 232 189 196 182 226 215 194 242 237 163 206 211 218 222 226 231 237 240 244 247 248
38 55 69 81 88 101 125 148 169 186 193 190 192 195 199 193 195 199 202 209 214 217 228 218 212 202 217 221 190 215 207 213 194 195 212 219 226 233 239 243 247 249 250
43 50 61 72 76 74 81 98 124 152 162 176 177 180 184 175 187 188 190 197 201 202 214 211 190 198 211 203 215 195 198 208 187 150 186 208 222 237 246 254 259 259 258
40 47 54 60 64 65 65 74 95 116 134 153 165 170 177 176 181 181 184 182 186 187 196 195 179 160 162 166 174 152 159 148 135 130 136 132 110 97 353 311 299 285 273
38 42 47 51 55 57 54 56 67 82 97 110 124 133 147 162 164 172 177 175 174 169 176 176 162 149 129 144 169 150 133 114 108 102 90 91 96 91 72 50 29 1 327
38 40 42 44 46 49 43 39 55 81 92 102 105 104 93 81 68 82 132 158 165 163 159 157 149 140 136 142 136 136 122 117 93 73 87 80 84 71 62 54 41 29 22
37 37 38 39 43 44 41 39 34 74 88 95 100 98 107 109 104 96 80 70 64 139 149 148 142 136 123 117 106 121 134 141 105 61 78 70 67 63 53 46 44 48 46
39 38 37 38 43 42 39 43 36 58 74 78 88 97 96 100 123 117 113 115 86 63 43 111 118 107 106 107 118 115 103 89 88 80 89 80 71 66 61 54 53 52 51
39 38 37 38 43 42 40 39 31 62 68 68 68 79 96 101 89 105 113 103 90 74 60 80 87 78 71 77 88 96 103 106 104 86 72 79 76 69 69 66 60 58 55
40 41 41 40 42 42 39 34 27 68 72 68 62 59 67 90 60 36 114 110 102 88 71 71 73 80 67 45 24 111 129 134 113 93 67 83 108 93 82 84 73 68 65
42 46 45 41 41 41 38 33 24 63 71 74 73 70 56 66 65 11 114 116 111 108 110 107 102 110 91 72 30 58 60 99 117 100 60 83 140 138 101 71 61 60 67
Height
1556 1558 1559 1559 1560 1561 1562 1562 1564 1566 1567 1568 1569 1569 1570 1571 1571 1571 1570 1568 1568 1568 1568 1568 1569 1569 1570 1571 1571 1572 1572 1573 1574 1575 1575 1576 1576 1577 1578 1578 1578 1579 1579
1553 1554 1556 1557 1558 1559 1560 1561 1562 1564 1565 1566 1567 1568 1569 1569 1570 1570 1570 1568 1567 1567 1567 1568 1568 1569 1569 1570 1571 1571 1572 1573 1573 1574 1575 1575 1576 1577 1577 1578 1578 1578 1579
1550 1551 1553 1554 1555 1556 1558 1559 1561 1562 1563 1564 1565 1566 1567 1568 1568 1569 1568 1568 1568 1567 1567 1567 1567 1568 1569 1569 1570 1571 1571 1572 1573 1573 1574 1575 1575 1576 1577 1577 1577 1578 1578
1546 1547 1549 1551 1552 1554 1555 1556 1558 1559 1561 1562 1564 1565 1565 1566 1567 1567 1568 1568 1568 1568 1567 1566 1567 1567 1568 1568 1569 1570 1570 1571 1572 1572 1573 1574 1574 1575 1575 1576 1576 1577 1577
1541 1543 1545 1547 1549 1551 1552 1554 1556 1557 1559 1560 1562 1563 1564 1564 1565 1566 1567 1567 1567 1567 1567 1566 1566 1567 1567 1567 1568 1568 1569 1570 1570 1571 1572 1572 1573 1573 1574 1574 1575 1575 1575
1536 1538 1540 1542 1545 1547 1548 1550 1552 1554 1556 1558 1559 1560 1561 1562 1563 1564 1565 1565 1566 1567 1567 1567 1566 1566 1566 1566 1567 1567 1568 1568 1569 1569 1570 1571 1571 1572 1572 1572 1573 1573 1573
1531 1533 1535 1538 1540 1542 1544 1547 1549 1550 1552 1555 1556 1557 1558 1559 1560 1561 1562 1563 1564 1565 1565 1566 1567 1567 1566 1566 1566 1566 1567 1567 1567 1568 1569 1569 1569 1570 1570 1571 1571 1571 1571
1526 1527 1530 1532 1535 1538 1540 1542 1545 1547 1549 1551 1553 1554 1555 1557 1556 1558 1559 1560 1562 1563 1564 1565 1565 1565 1566 1566 1565 1565 1565 1566 1566 1567 1567 1567 1568 1568 1568 1569 1569 1569 1569
1520 1522 1524 1527 1530 1533 1535 1537 1540 1543 1545 1547 1549 1551 1552 1552 1553 1555 1556 1557 1558 1560 1561 1562 1563 1564 1564 1565 1564 1564 1564 1565 1565 1565 1566 1566 1566 1566 1566 1567 1567 1567 1567
1515 1517 1519 1521 1524 1526 1529 1532 1535 1537 1540 1542 1544 1546 1549 1549 1551 1551 1553 1554 1555 1556 1558 1559 1560 1561 1562 1562 1562 1562 1563 1563 1564 1564 1564 1565 1565 1565 1565 1565 1565 1565 1565
1510 1512 1514 1516 1519 1521 1524 1527 1529 1532 1535 1537 1539 1542 1543 1545 1547 1548 1549 1550 1551 1552 1554 1555 1556 1557 1559 1559 1559 1560 1560 1561 1562 1562 1563 1563 1563 1563 1563 1563 1563 1563 1563
1507 1508 1510 1512 1514 1516 1519 1522 1525 1527 1530 1532 1535 1537 1539 1541 1542 1544 1545 1547 1548 1549 1550 1551 1552 1553 1554 1555 1556 1557 1558 1559 1559 1560 1561 1561 1562 1562 1562 1562 1562 1562 1561
1504 1505 1507 1509 1511 1513 1515 1518 1520 1523 1526 1528 1530 1532 1534 1536 1539 1540 1542 1543 1544 1545 1546 1546 1548 1549 1550 1551 1552 1553 1554 1555 1556 1557 1558 1559 1559 1560 1560 1560 1560 1560 1559
1502 1503 1505 1506 1508 1510 1512 1514 1517 1519 1522 1524 1526 1528 1530 1532 1534 1536 1537 1539 1540 1541 1542 1543 1543 1544 1545 1547 1548 1549 1550 1552 1553 1554 1555 1556 1557 1557 1557 1558 1557 1557 1557
1502 1503 1503 1504 1506 1507 1509 1511 1514 1516 1517 1519 1521 1523 1525 1527 1529 1531 1533 1535 1537 1537 1538 1539 1540 1540 1541 1543 1543 1545 1547 1548 1549 1550 1551 1553 1554 1554 1555 1555 1555 1555 1555
1502 1503 1503 1504 1505 1506 1508 1509 1511 1513 1515 1516 1518 1520 1522 1524 1525 1527 1529 1531 1532 1534 1535 1536 1537 1537 1538 1539 1540 1542 1543 1544 1545 1547 1548 1550 1550 1551 1551 1552 1552 1552 1552
1503 1503 1504 1504 1505 1506 1507 1508 1510 1511 1513 1515 1516 1518 1520 1521 1522 1524 1526 1527 1529 1530 1532 1533 1534 1535 1536 1537 1538 1539 1540 1541 1542 1543 1545 1546 1547 1548 1548 1548 1548 1548 1548
1505 1505 1505 1506 1506 1507 1507 1508 1509 1510 1512 1513 1515 1517 1518 1519 1521 1522 1524 1525 1526 1527 1529 1530 1531 1532 1533 1534 1535 1536 1537 1539 1540 1540 1542 1543 1544 1544 1545 1545 1544 1544 1544
1507 1507 1507 1507 1507 1507 1508 1508 1510 1511 1512 1513 1515 1516 1517 1519 1520 1521 1522 1524 1525 1526 1527 1529 1530 1530 1531 1532 1533 1534 1535 1536 1537 1538 1539 1540 1540 1541 1541 1541 1541 1540 1540
1510 1509 1508 1508 1508 1509 1509 1509 1510 1511 1513 1514 1515 1516 1517 1519 1520 1521 1522 1523 1524 1525 1526 1528 1529 1530 1530 1531 1532 1533 1534 1535 1536 1536 1537 1537 1538 1538 1538 1538 1537 1537 1536
1512 1511 1510 1510 1510 1510 1509 1510 1511 1512 1513 1514 1515 1516 1517 1518 1519 1520 1522 1523 1524 1524 1526 1527 1528 1529 1530 1530 1531 1532 1532 1533 1534 1535 1535 1535 1536 1536 1536 1535 1534 1534 1533
1515 1514 1513 1512 1511 1511 1511 1511 1511 1512 1513 1515 1516 1517 1518 1519 1520 1521 1522 1522 1524 1525 1526 1527 1528 1529 1530 1530 1530 1531 1532 1533 1534 1534 1534 1535 1535 1534 1534 1533 1532 1532 1531
1518 1517 1515 1514 1513 1512 1512 1512 1512 1513 1514 1515 1516 1518 1519 1519 1521 1522 1522 1523 1524 1525 1526 1528 1528 1529 1529 1529 1530 1531 1531 1532 1532 1533 1534 1534 1534 1534 1534 1532 1532 1531 1530
1521 1519 1518 1517 1516 1515 1514 1514 1514 1514 1514 1515 1517 1519 1520 1521 1522 1523 1524 1525 1525 1526 1527 1528 1529 1529 1529 1530 1530 1531 1531 1531 1532 1533 1534 1534 1534 1534 1534 1533 1531 1530 1529
1523 1522 1520 1519 1518 1517 1516 1516 1516 1516 1516 1517 1518 1519 1521 1522 1523 1524 1525 1526 1526 1527 1528 1528 1529 1529 1529 1530 1530 1531 1532 1533 1533 1534 1534 1534 1534 1534 1534 1533 1532 1530 1529
1526 1525 1523 1521 1520 1519 1518 1518 1517 1518 1518 1518 1519 1521 1522 1523 1524 1525 1527 1527 1528 1529 1529 1530 1530 1531 1531 1531 1531 1532 1533 1533 1534 1534 1534 1534 1535 1535 1534 1534 1533 1531 1529